FW8756 Weather Reports


Display with metric or nautical units.
time (UTC)temp
F
wind
direction
speed
MPH
gust
MPH
rain 1hr
in
rain 24hr
in
rain mn
in
humidity
%
barometer
mb
20260831030652 87 157 0.0 1.0 0.00 0.00 0.00 63 1013.5
20260831030151 87 153 0.0 0.0 0.00 0.00 0.00 62 1013.3
20260831025650 87 152 0.0 0.0 0.00 0.00 0.00 62 1013.3
20260831025144 87 165 0.0 0.0 0.00 0.00 0.00 62 1013.1
20260831024641 88 135 0.0 0.0 0.00 0.00 0.00 61 1013.3
20260831024139 88 169 0.0 0.0 0.00 0.00 0.00 60 1012.9
20260831023638 88 150 0.0 1.0 0.00 0.00 0.00 60 1012.9
20260831023137 88 151 0.0 0.0 0.00 0.00 0.00 59 1012.8
20260831022633 88 162 0.0 1.0 0.00 0.00 0.00 59 1012.5
20260831022128 89 113 2.0 3.0 0.00 0.00 0.00 58 1012.6
20260831021626 89 171 0.0 0.0 0.00 0.00 0.00 58 1012.6
20260831021122 89 134 2.0 2.0 0.00 0.00 0.00 57 1012.5
20260831020618 89 154 0.0 0.0 0.00 0.00 0.00 57 1012.3
20260831020113 89 153 0.0 0.0 0.00 0.00 0.00 57 1012.3
20260831015609 89 148 0.0 0.0 0.00 0.00 0.00 56 1012.3
20260831015108 90 174 3.0 5.0 0.00 0.00 0.00 56 1012.2
20260831014603 90 152 0.0 0.0 0.00 0.00 0.00 56 1012.0
20260831014059 90 165 0.0 1.0 0.00 0.00 0.00 56 1012.0
20260831013555 90 147 0.0 0.0 0.00 0.00 0.00 55 1012.2
20260831013054 91 180 0.0 0.0 0.00 0.00 0.00 55 1012.1
20260831012554 91 169 3.0 5.0 0.00 0.00 0.00 55 1012.1
20260831012050 91 167 0.0 1.0 0.00 0.00 0.00 56 1012.1
20260831011549 91 151 0.0 0.0 0.00 0.00 0.00 55 1012.0
20260831011044 91 154 0.0 1.0 0.00 0.00 0.00 55 1012.0
20260831010540 92 124 1.0 1.0 0.00 0.00 0.00 54 1012.0
20260831010036 92 170 0.0 1.0 0.00 0.00 0.00 54 1011.9
20260831005531 92 155 0.0 0.0 0.00 0.00 0.00 53 1011.8
20260831005030 92 154 0.0 0.0 0.00 0.00 0.00 54 1012.0
20260831004526 92 146 0.0 0.0 0.00 0.00 0.00 53 1011.7
20260831004022 93 148 0.0 0.0 0.00 0.00 0.00 53 1011.9
20260831003518 93 139 0.0 0.0 0.00 0.00 0.00 52 1011.5
20260831003014 93 155 0.0 0.0 0.00 0.00 0.00 52 1011.7
20260831002512 93 160 0.0 0.0 0.00 0.00 0.00 51 1011.6
20260831002007 94 157 0.0 0.0 0.00 0.00 0.00 51 1011.6
20260831001503 94 155 1.0 2.0 0.00 0.00 0.00 51 1011.7
20260831000959 94 120 2.0 3.0 0.00 0.00 0.00 50 1011.7
20260831000455 94 136 0.0 0.0 0.00 0.00 0.00 50 1011.9
20260830235953 95 154 1.0 2.0 0.00 0.00 0.00 50 1011.6
20260830235448 95 164 0.0 0.0 0.00 0.00 0.00 50 1011.6
20260830234943 95 148 0.0 0.0 0.00 0.00 0.00 50 1011.6
20260830234438 95 159 0.0 0.0 0.00 0.00 0.00 50 1011.6
20260830233934 96 159 3.0 3.0 0.00 0.00 0.00 49 1011.9
20260830233429 96 195 0.0 0.0 0.00 0.00 0.00 49 1011.5
20260830232925 97 163 0.0 0.0 0.00 0.00 0.00 48 1011.6
20260830232421 97 151 0.0 0.0 0.00 0.00 0.00 46 1011.8
20260830231917 97 120 0.0 1.0 0.00 0.00 0.00 46 1011.7
20260830231412 96 153 0.0 0.0 0.00 0.00 0.00 47 1011.8
20260830230911 96 165 0.0 0.0 0.00 0.00 0.00 46 1011.7
20260830230407 97 168 0.0 1.0 0.00 0.00 0.00 47 1011.8
20260830225906 97 243 2.0 3.0 0.00 0.00 0.00 46 1012.0
20260830225402 98 174 3.0 3.0 0.00 0.00 0.00 45 1012.0
20260830224856 98 154 0.0 0.0 0.00 0.00 0.00 45 1011.7
20260830224355 98 143 3.0 6.0 0.00 0.00 0.00 45 1011.9
20260830223852 97 156 0.0 0.0 0.00 0.00 0.00 46 1011.8
20260830223348 96 157 2.0 3.0 0.00 0.00 0.00 46 1011.7
20260830222847 97 152 1.0 1.0 0.00 0.00 0.00 45 1011.9
20260830222343 96 307 0.0 1.0 0.00 0.00 0.00 46 1011.9
20260830221838 97 134 1.0 2.0 0.00 0.00 0.00 46 1012.0
20260830221335 98 155 1.0 1.0 0.00 0.00 0.00 46 1012.0
20260830220830 99 196 6.0 7.0 0.00 0.00 0.00 46 1011.9
20260830220330 98 162 1.0 2.0 0.00 0.00 0.00 45 1011.8
20260830215827 99 174 0.0 0.0 0.00 0.00 0.00 45 1012.1
20260830215322 100 220 2.0 3.0 0.00 0.00 0.00 44 1011.8
20260830214818 99 247 2.0 3.0 0.00 0.00 0.00 45 1012.0
20260830214312 100 167 3.0 5.0 0.00 0.00 0.00 45 1012.2
20260830213812 100 173 1.0 2.0 0.00 0.00 0.00 44 1012.0
20260830213307 100 131 1.0 2.0 0.00 0.00 0.00 43 1012.2
20260830212803 100 162 1.0 2.0 0.00 0.00 0.00 44 1012.0
20260830212259 99 228 2.0 2.0 0.00 0.00 0.00 44 1012.5
20260830211757 100 176 2.0 2.0 0.00 0.00 0.00 44 1012.2
20260830211257 101 190 1.0 2.0 0.00 0.00 0.00 43 1012.3
20260830210753 99 255 2.0 2.0 0.00 0.00 0.00 44 1012.5
20260830210252 100 161 0.0 0.0 0.00 0.00 0.00 43 1012.8
20260830205749 100 160 2.0 3.0 0.00 0.00 0.00 44 1012.8
20260830205244 100 129 2.0 2.0 0.00 0.00 0.00 43 1012.6
20260830204740 100 137 1.0 2.0 0.00 0.00 0.00 45 1012.9
20260830204238 100 150 2.0 3.0 0.00 0.00 0.00 45 1012.9
20260830203735 100 188 3.0 6.0 0.00 0.00 0.00 44 1012.8
20260830203230 101 203 1.0 2.0 0.00 0.00 0.00 43 1013.0
20260830202730 100 176 1.0 1.0 0.00 0.00 0.00 44 1013.1
20260830202225 100 149 0.0 1.0 0.00 0.00 0.00 44 1013.1
20260830201724 99 157 3.0 3.0 0.00 0.00 0.00 47 1013.4
20260830201220 99 266 2.0 3.0 0.00 0.00 0.00 46 1013.2
20260830200715 98 214 2.0 3.0 0.00 0.00 0.00 47 1013.3
20260830200214 96 156 0.0 0.0 0.00 0.00 0.00 49 1013.5
20260830195710 98 210 3.0 3.0 0.00 0.00 0.00 49 1013.5
20260830195208 99 116 0.0 1.0 0.00 0.00 0.00 46 1013.5
20260830194707 99 201 1.0 2.0 0.00 0.00 0.00 45 1013.6
20260830194202 98 158 0.0 1.0 0.00 0.00 0.00 48 1013.9
20260830193656 99 187 1.0 1.0 0.00 0.00 0.00 47 1014.0
20260830193156 98 150 0.0 1.0 0.00 0.00 0.00 50 1014.2
20260830192652 99 154 1.0 2.0 0.00 0.00 0.00 48 1014.1
20260830192147 98 184 0.0 1.0 0.00 0.00 0.00 51 1014.2
20260830191643 98 225 1.0 2.0 0.00 0.00 0.00 50 1014.2
20260830191137 95 158 0.0 1.0 0.00 0.00 0.00 54 1014.3
20260830190633 98 163 1.0 2.0 0.00 0.00 0.00 51 1014.6
20260830190127 98 149 0.0 0.0 0.00 0.00 0.00 51 1014.3
20260830185621 96 233 2.0 3.0 0.00 0.00 0.00 52 1014.7
20260830185117 96 153 0.0 0.0 0.00 0.00 0.00 53 1014.8
20260830184615 95 180 1.0 2.0 0.00 0.00 0.00 54 1014.6
20260830184115 95 141 1.0 2.0 0.00 0.00 0.00 55 1014.8
20260830183610 96 177 0.0 1.0 0.00 0.00 0.00 54 1015.1
20260830183106 95 179 3.0 3.0 0.00 0.00 0.00 54 1015.1
20260830182601 93 157 1.0 2.0 0.00 0.00 0.00 57 1014.9
20260830182058 96 169 3.0 5.0 0.00 0.00 0.00 55 1015.2
20260830181554 95 297 3.0 3.0 0.00 0.00 0.00 56 1015.4
20260830181053 95 158 2.0 2.0 0.00 0.00 0.00 56 1015.3
20260830180552 92 173 2.0 2.0 0.00 0.00 0.00 60 1015.4
20260830180052 90 177 5.0 5.0 0.00 0.00 0.00 62 1015.4
20260830175551 91 115 3.0 3.0 0.00 0.00 0.00 63 1015.6
20260830175046 92 135 4.0 6.0 0.00 0.00 0.00 61 1015.8
20260830174542 94 168 4.0 5.0 0.00 0.00 0.00 60 1015.9
20260830174037 92 159 0.0 1.0 0.00 0.00 0.00 61 1016.1
20260830173532 94 260 3.0 3.0 0.00 0.00 0.00 58 1015.9
20260830173027 92 160 0.0 0.0 0.00 0.00 0.00 62 1016.2
20260830172524 96 217 5.0 7.0 0.00 0.00 0.00 57 1016.2
20260830172020 95 164 2.0 3.0 0.00 0.00 0.00 58 1016.2
20260830171520 94 157 1.0 2.0 0.00 0.00 0.00 60 1015.9
20260830171020 94 144 3.0 3.0 0.00 0.00 0.00 60 1016.2
20260830170515 97 145 0.0 0.0 0.00 0.00 0.00 56 1016.2
20260830170014 93 52 2.0 2.0 0.00 0.00 0.00 61 1016.4
20260830165509 93 198 1.0 3.0 0.00 0.00 0.00 61 1016.4
20260830165005 94 302 4.0 5.0 0.00 0.00 0.00 62 1016.3
20260830164501 94 302 2.0 3.0 0.00 0.00 0.00 62 1016.4
20260830163957 94 209 3.0 3.0 0.00 0.00 0.00 64 1016.5
20260830163454 92 221 3.0 6.0 0.00 0.00 0.00 65 1016.3
20260830162952 92 205 2.0 3.0 0.00 0.00 0.00 65 1016.2
20260830162449 91 163 1.0 2.0 0.00 0.00 0.00 68 1016.4
20260830161948 93 146 0.0 0.0 0.00 0.00 0.00 66 1016.4
20260830161443 94 150 1.0 2.0 0.00 0.00 0.00 64 1016.4
20260830160938 92 134 1.0 1.0 0.00 0.00 0.00 67 1016.3
20260830160435 92 171 2.0 2.0 0.00 0.00 0.00 67 1016.5
20260830155929 91 154 1.0 1.0 0.00 0.00 0.00 69 1016.5
20260830155426 91 158 3.0 3.0 0.00 0.00 0.00 69 1016.5
20260830154920 92 245 2.0 3.0 0.00 0.00 0.00 68 1016.4
20260830154416 89 154 0.0 0.0 0.00 0.00 0.00 71 1016.4
20260830153913 87 158 0.0 0.0 0.00 0.00 0.00 74 1016.2
20260830153408 89 127 2.0 2.0 0.00 0.00 0.00 72 1016.4
20260830152907 90 195 1.0 1.0 0.00 0.00 0.00 70 1016.4
20260830152402 89 223 2.0 3.0 0.00 0.00 0.00 71 1016.4
20260830151856 87 168 1.0 2.0 0.00 0.00 0.00 74 1016.3
20260830151355 87 159 2.0 2.0 0.00 0.00 0.00 74 1016.2
20260830150851 87 4 1.0 2.0 0.00 0.00 0.00 75 1016.5
20260830150350 86 125 0.0 1.0 0.00 0.00 0.00 77 1016.3
20260830145845 89 157 0.0 0.0 0.00 0.00 0.00 75 1016.3
20260830145339 87 148 0.0 0.0 0.00 0.00 0.00 75 1016.2
20260830144835 87 149 0.0 0.0 0.00 0.00 0.00 77 1016.1
20260830144331 86 152 0.0 0.0 0.00 0.00 0.00 78 1016.4
20260830143827 86 161 1.0 2.0 0.00 0.00 0.00 78 1016.2
20260830143326 86 162 0.0 0.0 0.00 0.00 0.00 78 1016.4
20260830142820 86 159 0.0 0.0 0.00 0.00 0.00 79 1016.3
20260830142315 85 148 0.0 0.0 0.00 0.00 0.00 80 1016.6
20260830141811 85 174 2.0 2.0 0.00 0.00 0.00 81 1016.4
20260830141305 84 144 0.0 0.0 0.00 0.00 0.00 82 1016.4
20260830140801 83 155 1.0 1.0 0.00 0.00 0.00 83 1016.4
20260830140255 83 150 0.0 0.0 0.00 0.00 0.00 84 1016.3
20260830135750 83 150 0.0 0.0 0.00 0.00 0.00 85 1016.6
20260830135245 83 154 0.0 0.0 0.00 0.00 0.00 85 1016.4
20260830134741 82 149 0.0 0.0 0.00 0.00 0.00 86 1016.3
20260830134241 82 175 0.0 1.0 0.00 0.00 0.00 86 1016.2
20260830133737 82 167 0.0 0.0 0.00 0.00 0.00 86 1016.2
20260830133232 82 148 0.0 0.0 0.00 0.00 0.00 87 1016.1
20260830132728 81 158 0.0 0.0 0.00 0.00 0.00 87 1016.1
20260830132223 81 150 0.0 0.0 0.00 0.00 0.00 87 1016.2
20260830131722 81 150 0.0 0.0 0.00 0.00 0.00 88 1016.2
20260830131217 81 140 0.0 0.0 0.00 0.00 0.00 88 1016.0
20260830130713 80 155 0.0 0.0 0.00 0.00 0.00 88 1016.2
20260830130212 80 156 0.0 0.0 0.00 0.00 0.00 89 1015.8
20260830125712 80 143 0.0 0.0 0.00 0.00 0.00 89 1015.8
20260830125207 79 139 0.0 0.0 0.00 0.00 0.00 89 1015.7
20260830124704 79 146 0.0 0.0 0.00 0.00 0.00 89 1015.6
20260830124200 79 144 0.0 0.0 0.00 0.00 0.00 89 1015.8
20260830123657 79 142 0.0 0.0 0.00 0.00 0.00 89 1015.7
20260830123153 79 149 0.0 0.0 0.00 0.00 0.00 89 1015.8
20260830122650 79 143 0.0 0.0 0.00 0.00 0.00 89 1015.6
20260830122145 79 142 0.0 0.0 0.00 0.00 0.00 89 1015.8
20260830121641 79 145 0.0 0.0 0.00 0.00 0.00 89 1015.8
20260830121140 79 125 0.0 0.0 0.00 0.00 0.00 89 1015.7
20260830120635 79 145 0.0 0.0 0.00 0.00 0.00 89 1015.7
20260830120132 79 138 0.0 0.0 0.00 0.00 0.00 89 1015.5
20260830115627 79 146 0.0 0.0 0.00 0.00 0.00 89 1015.4
20260830115123 79 174 0.0 1.0 0.00 0.00 0.00 89 1015.5
20260830114620 79 146 0.0 0.0 0.00 0.00 0.00 89 1015.5
20260830114119 79 144 0.0 0.0 0.00 0.00 0.00 89 1015.6
20260830113614 79 139 0.0 0.0 0.00 0.00 0.00 89 1015.6
20260830113109 79 147 0.0 0.0 0.00 0.00 0.00 89 1015.2
20260830112606 79 143 0.0 0.0 0.00 0.00 0.00 89 1015.4
20260830112102 79 145 0.0 0.0 0.00 0.00 0.00 88 1015.3
20260830111557 79 172 0.0 0.0 0.00 0.00 0.00 88 1015.3
20260830111053 79 148 0.0 0.0 0.00 0.00 0.00 88 1015.2
20260830110552 79 145 0.0 0.0 0.00 0.00 0.00 88 1015.2
20260830110048 79 158 0.0 0.0 0.00 0.00 0.00 88 1015.0
20260830105543 79 167 0.0 0.0 0.00 0.00 0.00 88 1014.9
20260830105039 79 130 0.0 0.0 0.00 0.00 0.00 88 1015.2
20260830104536 79 171 0.0 0.0 0.00 0.00 0.00 88 1015.1
20260830104032 79 189 0.0 0.0 0.00 0.00 0.00 88 1015.3
20260830103526 79 150 0.0 0.0 0.00 0.00 0.00 88 1015.2
20260830103025 79 179 0.0 0.0 0.00 0.00 0.00 88 1015.1
20260830102520 79 157 0.0 0.0 0.00 0.00 0.00 88 1015.0
20260830102016 79 153 0.0 0.0 0.00 0.00 0.00 88 1015.1
20260830101511 79 200 0.0 0.0 0.00 0.00 0.00 88 1014.9
20260830101010 79 168 0.0 0.0 0.00 0.00 0.00 88 1014.9
20260830100510 79 179 0.0 0.0 0.00 0.00 0.00 88 1014.8
20260830100009 79 153 0.0 0.0 0.00 0.00 0.00 88 1014.9
20260830095504 79 176 0.0 0.0 0.00 0.00 0.00 88 1014.7
20260830095000 79 162 0.0 0.0 0.00 0.00 0.00 87 1015.0
20260830094456 79 159 0.0 0.0 0.00 0.00 0.00 87 1014.9
20260830093951 79 150 0.0 0.0 0.00 0.00 0.00 87 1014.9
20260830093446 79 154 0.0 0.0 0.00 0.00 0.00 87 1014.7
20260830092942 79 153 0.0 0.0 0.00 0.00 0.00 87 1014.8
20260830092438 80 142 0.0 0.0 0.00 0.00 0.00 87 1014.8
20260830091935 80 157 0.0 0.0 0.00 0.00 0.00 86 1014.9
20260830091434 80 166 0.0 0.0 0.00 0.00 0.00 86 1014.8
20260830090933 80 144 0.0 0.0 0.00 0.00 0.00 86 1014.6
20260830090429 80 142 0.0 0.0 0.00 0.00 0.00 86 1014.5
20260830085924 80 146 0.0 1.0 0.00 0.00 0.00 86 1014.6
20260830085418 80 167 0.0 0.0 0.00 0.00 0.00 86 1014.8
20260830084914 80 162 0.0 0.0 0.00 0.00 0.00 85 1014.8
20260830084409 80 128 0.0 0.0 0.00 0.00 0.00 85 1014.7
20260830083904 80 206 1.0 1.0 0.00 0.00 0.00 85 1014.9
20260830083400 80 154 0.0 0.0 0.00 0.00 0.00 85 1014.5
20260830082900 80 155 0.0 0.0 0.00 0.00 0.00 85 1014.9
20260830082355 80 260 1.0 1.0 0.00 0.00 0.00 85 1014.6
20260830081850 81 157 0.0 0.0 0.00 0.00 0.00 85 1014.6
20260830081345 81 171 0.0 0.0 0.00 0.00 0.00 85 1014.8
20260830080844 81 164 0.0 0.0 0.00 0.00 0.00 85 1014.8
20260830080341 81 168 0.0 0.0 0.00 0.00 0.00 84 1014.8
20260830075840 81 176 1.0 2.0 0.00 0.00 0.00 84 1014.8
20260830075336 81 155 0.0 1.0 0.00 0.00 0.00 84 1014.8
20260830074830 81 165 0.0 0.0 0.00 0.00 0.00 84 1014.9
20260830074326 81 166 0.0 0.0 0.00 0.00 0.00 84 1015.0
20260830073822 81 215 1.0 1.0 0.00 0.00 0.00 84 1014.9
20260830073318 81 245 1.0 2.0 0.00 0.00 0.00 83 1015.1
20260830072812 81 155 0.0 0.0 0.00 0.00 0.00 83 1015.1
20260830072308 81 154 0.0 0.0 0.00 0.00 0.00 83 1015.1
20260830071807 82 166 1.0 1.0 0.00 0.00 0.00 82 1014.9
20260830071302 82 160 2.0 2.0 0.00 0.00 0.00 82 1014.9
20260830070801 82 187 0.0 1.0 0.00 0.00 0.00 82 1015.0
20260830070255 82 171 0.0 1.0 0.00 0.00 0.00 82 1014.8
20260830065755 82 211 0.0 0.0 0.00 0.00 0.00 82 1014.9
20260830065249 82 155 0.0 0.0 0.00 0.00 0.00 82 1014.6
20260830064748 82 138 0.0 1.0 0.00 0.00 0.00 81 1014.9
20260830064243 82 174 0.0 0.0 0.00 0.00 0.00 81 1014.9
20260830063738 82 244 2.0 2.0 0.00 0.00 0.00 81 1015.0
20260830063237 82 151 0.0 0.0 0.00 0.00 0.00 80 1014.6
20260830062731 82 271 1.0 2.0 0.00 0.00 0.00 80 1014.8
20260830062221 83 182 1.0 2.0 0.00 0.00 0.00 80 1014.7
20260830061720 83 181 0.0 0.0 0.00 0.00 0.00 80 1014.9
20260830061216 83 177 0.0 1.0 0.00 0.00 0.00 79 1014.9
20260830060713 83 260 0.0 1.0 0.00 0.00 0.00 79 1014.9
20260830060209 83 254 1.0 2.0 0.00 0.00 0.00 79 1014.8
20260830055704 83 221 0.0 0.0 0.00 0.00 0.00 79 1014.9
20260830055201 83 299 3.0 3.0 0.00 0.00 0.00 78 1014.9
20260830054700 84 199 2.0 2.0 0.00 0.00 0.00 78 1014.9
20260830054156 84 237 2.0 3.0 0.00 0.00 0.00 78 1014.6
20260830053652 84 199 0.0 0.0 0.00 0.00 0.00 77 1014.8
20260830053151 84 163 0.0 0.0 0.00 0.00 0.00 77 1014.9
20260830052646 84 153 0.0 0.0 0.00 0.00 0.00 77 1014.9
20260830052142 84 188 0.0 0.0 0.00 0.00 0.00 77 1014.9
20260830051636 84 165 0.0 0.0 0.00 0.00 0.00 76 1014.9
20260830051132 84 173 1.0 2.0 0.00 0.00 0.00 77 1015.0
20260830050630 84 162 1.0 1.0 0.00 0.00 0.00 76 1014.7
20260830050126 84 279 1.0 2.0 0.00 0.00 0.00 76 1014.7
20260830045624 85 162 0.0 1.0 0.00 0.00 0.00 76 1014.8
20260830045120 85 187 0.0 0.0 0.00 0.00 0.00 76 1014.7
20260830044619 85 157 0.0 2.0 0.00 0.00 0.00 76 1014.9
20260830044114 85 154 0.0 0.0 0.00 0.00 0.00 75 1014.7
20260830043610 85 155 1.0 1.0 0.00 0.00 0.00 75 1014.9
20260830043108 85 182 2.0 2.0 0.00 0.00 0.00 75 1014.9
20260830042606 85 173 2.0 3.0 0.00 0.00 0.00 74 1014.8
20260830042102 86 191 1.0 2.0 0.00 0.00 0.00 74 1014.8
20260830041600 86 167 0.0 0.0 0.00 0.00 0.00 74 1014.8
20260830041100 86 152 0.0 0.0 0.00 0.00 0.00 74 1014.6
20260830040555 86 150 0.0 0.0 0.00 0.00 0.00 73 1014.6
20260830040051 86 197 0.0 0.0 0.00 0.00 0.00 73 1014.5
20260830035548 86 151 0.0 0.0 0.00 0.00 0.00 72 1014.7
20260830035044 86 181 0.0 1.0 0.00 0.00 0.00 72 1014.6
20260830034540 86 199 1.0 1.0 0.00 0.00 0.00 72 1014.7
20260830034039 86 152 0.0 0.0 0.00 0.00 0.00 72 1014.4
20260830033534 86 208 0.0 0.0 0.00 0.00 0.00 72 1014.4
20260830033030 87 162 0.0 0.0 0.00 0.00 0.00 71 1014.5
20260830032529 87 157 2.0 2.0 0.00 0.00 0.00 70 1014.7
20260830032024 87 172 0.0 0.0 0.00 0.00 0.00 70 1014.5
20260830031520 87 165 0.0 0.0 0.00 0.00 0.00 69 1014.4
20260830031015 87 151 1.0 2.0 0.00 0.00 0.00 69 1014.3